Date,TemperatureHighF,TemperatureAvgF,TemperatureLowF,DewpointHighF,DewpointAvgF,DewpointLowF,HumidityHigh,HumidityAvg,HumidityLow,PressureMaxIn,PressureMinIn,WindSpeedMaxMPH,WindSpeedAvgMPH,GustSpeedMaxMPH,PrecipitationSumIn
2013-3-1,40,32,28,27,25,22,87,73,59,29.95,29.87,15,2,15,314.04
2013-3-2,39,31,25,30,24,14,96,77,46,29.96,29.86,13,1,13,313.89
2013-3-3,33,26,21,15,13,10,72,59,44,30.05,29.93,21,4,21,313.93
2013-3-4,54,37,22,32,18,9,68,48,27,30.16,30.03,12,1,12,313.69
2013-3-5,49,42,32,48,36,24,100,80,50,30.04,29.64,24,2,24,313.53
2013-3-6,35,29,24,26,21,16,83,73,60,30.15,29.73,24,3,24,313.93
2013-3-7,52,37,26,30,25,22,87,65,39,30.25,30.11,18,4,20,313.81
2013-3-8,58,41,26,28,20,8,90,52,14,30.29,30.18,16,2,16,313.73
2013-3-9,60,47,34,29,25,20,65,45,27,30.29,30.17,14,1,14,313.45
2013-3-10,61,52,45,37,30,27,54,44,30,30.22,30.08,19,2,19,299.28
2013-3-11,53,48,46,51,47,37,100,95,55,30.08,29.77,26,6,26,299.28
2013-3-12,55,46,36,51,35,14,100,72,20,30.04,29.72,20,5,20,300.00
2013-3-13,48,39,34,28,23,15,68,54,31,30.07,29.99,25,3,25,29.88
2013-3-22,46,43,40,29,26,18,59,52,38,30.02,29.96,15,1,15,286.14
2013-3-23,55,43,36,48,38,26,99,85,58,30.01,29.80,11,1,11,285.98
2013-3-24,49,43,36,49,43,33,100,97,85,29.85,29.48,19,2,19,146.35
2013-3-25,35,30,26,33,23,18,92,75,63,29.96,29.55,19,2,19,0.00
2013-3-26,39,30,26,23,19,16,75,63,48,30.21,29.94,22,3,22,0.00
2013-3-27,48,35,27,22,18,11,67,51,24,30.28,30.17,16,3,16,0.00
2013-3-28,55,41,30,22,17,9,64,42,18,30.29,30.17,16,2,16,0.00
2013-3-29,48,39,29,37,25,-100,95,61,36,30.33,30.21,16,1,16,0.00
2013-3-30,65,49,37,46,39,34,100,74,36,30.21,29.99,18,1,18,0.00
2013-3-31,63,52,48,53,50,46,100,91,68,29.99,29.81,11,1,14,0.00